Flag for Canada Weather past 2 weeks in Norman Wells, Northwest Territories, Canada

Now
57 °F

Light rain. Mostly cloudy.


Feels Like: 56 °F
Forecast: 61 / 70 °F
Wind: 6 mph from Northeast

Location: Norman Wells

Current Time: Jun 30, 2015 at 8:33:37 AM

Latest Report: Jun 30, 2015 at 7:00 AM


Visibility: 10 mi

Pressure: 29.90 "Hg

Humidity: 88%

Dew point: 54 °F

Location of Norman WellsLocation

Historic Weather in Norman Wells — Graph

°F

Norman Wells temperature yesterday

Maximum temperature yesterday: 81 °F (at 7:00 PM)
Minimum temperature yesterday: 54 °F (at 5:00 AM)
Average temperature yesterday: 67 °F

Past Weeks' High & Low Weather Summary

 TemperatureHumidityPressure
High84 °F (Jun 26, 3:00 PM)100% (Jun 15, 8:50 AM)30.27 "Hg (Jun 15, 8:50 AM)
Low36 °F (Jun 16, 4:00 AM)22% (Jun 24, 5:00 PM)29.62 "Hg (Jun 26, 5:00 PM)
Average62 °F61%29.90 "Hg
* Reported Jun 15 7:00 AM — Jun 30 7:00 AM, Norman Wells, Weather by CustomWeather, © 2015

Note: Actual official high and low records may vary slightly from our data, if they occured in-between our weather recording intervals... More about our weather records

Advertising

Norman Wells weather history for previous 24 hours

 ConditionsComfort  
Time TempWeatherWind HumidityBarometerVisibility
7:00 AM
Tue, Jun 30
57 °FLight rain. Mostly cloudy.6 mph88%29.90 "Hg10 mi
6:00 AM59 °FLight rain. Mostly cloudy.6 mph77%29.90 "Hg20 mi
5:00 AM57 °FLight rain. Mostly cloudy.2 mph88%29.89 "Hg20 mi
4:00 AM64 °FLight rain. Mostly cloudy.6 mph60%29.87 "Hg30 mi
3:47 AM63 °FLight rain. Mostly cloudy.2 mph56%29.86 "Hg30 mi
3:00 AM64 °FCloudy.5 mph56%29.87 "Hg30 mi
2:00 AM66 °FBroken clouds.6 mph52%29.87 "Hg30 mi
1:00 AM68 °FPartly sunny.7 mph64%29.84 "Hg30 mi
12:00 AM70 °FPartly sunny.6 mph57%29.84 "Hg30 mi
11:00 PM
Mon, Jun 29
72 °FBroken clouds.6 mph57%29.84 "Hg30 mi
10:00 PM73 °FBroken clouds.10 mph50%29.83 "Hg30 mi
9:00 PM77 °FBroken clouds.7 mph42%29.83 "Hg30 mi
8:00 PM79 °FBroken clouds.8 mph34%29.84 "Hg30 mi
7:00 PM81 °FBroken clouds.9 mph34%29.84 "Hg30 mi
6:00 PM77 °FPartly sunny.9 mph30%29.85 "Hg30 mi
5:00 PM79 °FBroken clouds.7 mph24%29.87 "Hg30 mi
4:00 PM77 °FScattered clouds.8 mph39%29.88 "Hg30 mi
3:00 PM75 °FPassing clouds.9 mph47%29.89 "Hg30 mi
2:00 PM75 °FScattered clouds.12 mph47%29.91 "Hg30 mi
1:00 PM72 °FPassing clouds.8 mph47%29.92 "Hg30 mi
12:00 PM70 °FPassing clouds.9 mph53%29.93 "Hg30 mi
11:00 AM70 °FPassing clouds.10 mph57%29.94 "Hg30 mi
10:00 AM66 °FPassing clouds.10 mph68%29.94 "Hg30 mi
9:00 AM64 °FPassing clouds.8 mph73%29.95 "Hg30 mi
8:00 AM59 °FPassing clouds.7 mph82%29.95 "Hg30 mi
Weather by CustomWeather, © 2015

See weather overviewHow to use our weather pages